Location: Elkol
(41.7238°N, 110.6124°W)
Time: 15:56:38
(UTC+00:00)

BlueWalker 3 - Visible Passes

Search period start: 04 December 2022 00:00
Search period end: 14 December 2022 00:00
Orbit: 501 x 519 km, 53.2° (Epoch: 04 December)

Date Brightness Start Highest point End Pass type
(mag) Time Alt. Az. Time Alt. Az. Time Alt. Az.
04 Dec 3.9 01:15:20 10° NNW 01:17:46 16° N 01:18:28 15° NNE visible
05 Dec 3.9 00:56:57 10° NNW 00:59:25 16° N 01:00:52 13° NNE visible
05 Dec 4.8 02:35:25 10° NW 02:35:42 12° NW 02:35:42 12° NW visible
06 Dec 3.9 00:38:35 10° NNW 00:41:04 16° N 00:43:20 11° NE visible
06 Dec 4.3 02:17:00 10° NW 02:18:10 17° NNW 02:18:10 17° NNW visible
07 Dec 3.9 00:20:11 10° NNW 00:22:43 16° N 00:25:13 10° NE visible
07 Dec 3.5 01:58:36 10° NW 02:00:42 26° NNW 02:00:42 26° NNW visible
08 Dec 2.7 01:40:10 10° NW 01:43:21 37° N 01:43:21 37° N visible
09 Dec 2.4 01:21:45 10° NW 01:25:28 41° NNE 01:26:08 37° ENE visible
09 Dec 5.2 03:00:36 10° WNW 03:00:59 12° WNW 03:00:59 12° WNW visible
10 Dec 2.3 01:03:19 10° NW 01:07:05 43° NNE 01:09:07 23° E visible
10 Dec 4.5 02:42:14 10° WNW 02:43:59 21° W 02:43:59 21° W visible
11 Dec 2.3 00:44:53 10° NW 00:48:40 46° NNE 00:52:22 10° ESE visible
11 Dec 3.9 02:23:53 10° WNW 02:27:10 26° SW 02:27:16 26° SW visible
12 Dec 2.2 00:26:27 10° NW 00:30:16 48° NNE 00:34:02 10° ESE visible
12 Dec 4.1 02:05:30 10° WNW 02:08:43 25° SW 02:10:57 15° S visible
13 Dec 4.3 01:47:09 10° WNW 01:50:16 23° SW 01:53:21 10° S visible
